TRA9901 EPKT-EDLW

Flight info

Callsign TRA9901
Flight time 1h 13m
Altitude 34000
Route ADADO DCT UTEVO DCT ETUDA DCT RAPET T170 RUNEN DCT FULNO/N0462F300 T842 IDEWE/N0425F240 T842 ADEMI ADEMI2A
Aircraft B738/M-SDE2E3FGHIRWXY/LB1

Departure

Time 2026-05-05 13:55
Airport Katowice Wojciech Korfanty International Airport (EPKT)

Arrival

Time 2026-05-05 15:09
Airport Dortmund Airport (EDLW)
Time Latitude Longitude Altitude Speed Heading
2026-05-05 13:38 50.47160 19.09716 1009 ft 0 kts 183°
2026-05-05 13:49 50.47155 19.09731 1009 ft 4 kts 125°
2026-05-05 13:49 50.47162 19.09711 1009 ft 4 kts 128°
2026-05-05 13:49 50.47180 19.09681 1009 ft 4 kts 139°
2026-05-05 13:49 50.47201 19.09656 1009 ft 4 kts 142°
2026-05-05 13:50 50.47214 19.09631 1008 ft 2 kts 90°
2026-05-05 13:50 50.47214 19.09630 1008 ft 1 kts 90°
2026-05-05 13:53 50.47227 19.09702 1009 ft 14 kts 72°
2026-05-05 13:53 50.47236 19.09908 1010 ft 21 kts 89°
2026-05-05 13:53 50.47279 19.10120 1012 ft 21 kts 53°
2026-05-05 13:53 50.47363 19.10297 1014 ft 20 kts 50°
2026-05-05 13:54 50.47460 19.10442 1015 ft 19 kts 27°
2026-05-05 13:54 50.47556 19.10446 1014 ft 12 kts 345°
2026-05-05 13:54 50.47597 19.10351 1013 ft 12 kts 266°
2026-05-05 13:54 50.47597 19.10338 1012 ft 0 kts 266°
2026-05-05 13:55 50.47597 19.10328 1012 ft 11 kts 266°
2026-05-05 13:55 50.47596 19.09700 1008 ft 102 kts 270°
2026-05-05 13:55 50.47587 19.08177 1084 ft 170 kts 266°
2026-05-05 13:55 50.47691 19.06300 2049 ft 174 kts 270°
2026-05-05 13:56 50.47862 19.04440 3268 ft 174 kts 270°
2026-05-05 13:56 50.47772 19.02414 3807 ft 203 kts 259°
2026-05-05 13:56 50.47676 19.00055 4125 ft 232 kts 263°
2026-05-05 13:56 50.47645 18.97484 4861 ft 238 kts 265°
2026-05-05 13:57 50.47636 18.94794 5358 ft 256 kts 265°
2026-05-05 13:57 50.47613 18.91935 6021 ft 267 kts 265°
2026-05-05 13:57 50.47573 18.89013 7019 ft 267 kts 264°
2026-05-05 13:57 50.47532 18.86108 8040 ft 266 kts 265°
2026-05-05 13:58 50.47492 18.83192 9009 ft 268 kts 265°
2026-05-05 13:58 50.47452 18.80263 9936 ft 270 kts 265°
2026-05-05 13:58 50.47411 18.77298 10548 ft 284 kts 265°
2026-05-05 13:58 50.47363 18.74055 10748 ft 311 kts 265°
2026-05-05 13:59 50.47259 18.66717 11161 ft 358 kts 266°
2026-05-05 13:59 50.47154 18.62767 11692 ft 366 kts 260°
2026-05-05 14:00 50.44814 18.55828 13237 ft 366 kts 224°
2026-05-05 14:00 50.43496 18.54184 13715 ft 368 kts 212°
2026-05-05 14:00 50.40435 18.51796 14602 ft 374 kts 205°
2026-05-05 14:00 50.38053 18.50102 15220 ft 379 kts 205°
2026-05-05 14:01 50.35641 18.48353 15865 ft 383 kts 206°
2026-05-05 14:01 50.33223 18.46565 16497 ft 387 kts 207°
2026-05-05 14:01 50.30987 18.44188 17083 ft 392 kts 224°
2026-05-05 14:01 50.29313 18.40815 17734 ft 397 kts 239°
2026-05-05 14:02 50.28276 18.36783 18300 ft 404 kts 255°
2026-05-05 14:02 50.27726 18.32462 18833 ft 408 kts 258°
2026-05-05 14:02 50.27234 18.28059 19355 ft 412 kts 258°
2026-05-05 14:02 50.26756 18.23696 19874 ft 415 kts 258°
2026-05-05 14:03 50.26259 18.19249 20418 ft 418 kts 258°
2026-05-05 14:03 50.25743 18.14759 20946 ft 420 kts 258°
2026-05-05 14:03 50.25212 18.10258 21410 ft 424 kts 258°
2026-05-05 14:03 50.24667 18.05699 21882 ft 428 kts 258°
2026-05-05 14:04 50.24115 18.01128 22349 ft 431 kts 258°
2026-05-05 14:04 50.23555 17.96508 22817 ft 433 kts 259°
2026-05-05 14:04 50.22992 17.91881 23285 ft 436 kts 259°
2026-05-05 14:04 50.22429 17.87266 23648 ft 439 kts 259°
2026-05-05 14:05 50.21857 17.82581 24030 ft 441 kts 259°
2026-05-05 14:05 50.21276 17.77856 24414 ft 443 kts 258°
2026-05-05 14:05 50.20792 17.73106 24768 ft 446 kts 265°
2026-05-05 14:05 50.20798 17.68262 25131 ft 448 kts 271°
2026-05-05 14:06 50.20920 17.63379 25507 ft 450 kts 271°
2026-05-05 14:06 50.20985 17.58494 25839 ft 452 kts 270°
2026-05-05 14:06 50.20968 17.53565 26165 ft 454 kts 265°
2026-05-05 14:06 50.20571 17.48682 26473 ft 455 kts 257°
2026-05-05 14:07 50.19729 17.43968 26800 ft 457 kts 252°
2026-05-05 14:07 50.18786 17.39238 27144 ft 458 kts 252°
2026-05-05 14:07 50.17833 17.34483 27563 ft 458 kts 252°
2026-05-05 14:07 50.16895 17.29759 28032 ft 456 kts 252°
2026-05-05 14:08 50.15966 17.25035 28540 ft 453 kts 252°
2026-05-05 14:08 50.15053 17.20351 29035 ft 452 kts 252°
2026-05-05 14:08 50.14140 17.15659 29495 ft 451 kts 253°
2026-05-05 14:08 50.13233 17.11000 29931 ft 450 kts 253°
2026-05-05 14:09 50.12324 17.06333 30321 ft 448 kts 253°
2026-05-05 14:09 50.11431 17.01765 30719 ft 447 kts 253°
2026-05-05 14:09 50.10529 16.97160 31191 ft 444 kts 253°
2026-05-05 14:09 50.09625 16.92561 31597 ft 442 kts 253°
2026-05-05 14:10 50.08726 16.87996 31987 ft 441 kts 253°
2026-05-05 14:10 50.07822 16.83418 32313 ft 441 kts 253°
2026-05-05 14:10 50.06920 16.78865 32666 ft 441 kts 253°
2026-05-05 14:10 50.06015 16.74303 33047 ft 439 kts 253°
2026-05-05 14:11 50.05116 16.69779 33438 ft 438 kts 253°
2026-05-05 14:11 50.04226 16.65312 33791 ft 437 kts 253°
2026-05-05 14:11 50.02410 16.56215 33782 ft 441 kts 254°
2026-05-05 14:12 50.01520 16.46858 33765 ft 436 kts 269°
2026-05-05 14:12 50.01997 16.37477 33783 ft 435 kts 275°
2026-05-05 14:13 50.02598 16.28146 33779 ft 434 kts 275°
2026-05-05 14:13 50.03169 16.18867 33764 ft 434 kts 274°
2026-05-05 14:14 50.03714 16.09530 33770 ft 433 kts 274°
2026-05-05 14:14 50.04242 16.00202 33791 ft 433 kts 274°
2026-05-05 14:15 50.04758 15.90934 33771 ft 433 kts 274°
2026-05-05 14:15 50.05270 15.81606 33773 ft 433 kts 274°
2026-05-05 14:16 50.05775 15.72278 33774 ft 433 kts 274°
2026-05-05 14:16 50.06273 15.62942 33773 ft 433 kts 274°
2026-05-05 14:17 50.06761 15.53659 33775 ft 433 kts 273°
2026-05-05 14:17 50.07245 15.44312 33770 ft 433 kts 273°
2026-05-05 14:18 50.07720 15.34962 33774 ft 433 kts 273°
2026-05-05 14:18 50.08189 15.25604 33768 ft 434 kts 273°
2026-05-05 14:19 50.08650 15.16260 33763 ft 434 kts 273°
2026-05-05 14:19 50.09104 15.06895 33760 ft 434 kts 273°
2026-05-05 14:20 50.09547 14.97590 33768 ft 434 kts 272°
2026-05-05 14:20 50.09986 14.88221 33770 ft 434 kts 272°
2026-05-05 14:21 50.10417 14.78849 33775 ft 434 kts 272°
2026-05-05 14:21 50.10806 14.70264 33774 ft 434 kts 272°
2026-05-05 14:22 50.11187 14.61684 33776 ft 434 kts 272°
2026-05-05 14:22 50.11597 14.52311 33775 ft 434 kts 272°
2026-05-05 14:23 50.12000 14.42938 33776 ft 434 kts 272°
2026-05-05 14:23 50.12395 14.33563 33801 ft 433 kts 272°
2026-05-05 14:24 50.12779 14.24259 33804 ft 433 kts 272°
2026-05-05 14:24 50.13158 14.14897 33803 ft 433 kts 272°
2026-05-05 14:25 50.13529 14.05537 33795 ft 433 kts 272°
2026-05-05 14:25 50.13893 13.96175 33792 ft 433 kts 271°
2026-05-05 14:26 50.14249 13.86832 33787 ft 433 kts 271°
2026-05-05 14:26 50.14595 13.77527 33781 ft 433 kts 271°
2026-05-05 14:27 50.14937 13.68152 33773 ft 433 kts 271°
2026-05-05 14:27 50.15271 13.58771 33774 ft 433 kts 271°
2026-05-05 14:28 50.15598 13.49382 33783 ft 434 kts 271°
2026-05-05 14:28 50.15916 13.40049 33789 ft 434 kts 271°
2026-05-05 14:29 50.16228 13.30644 33804 ft 434 kts 270°
2026-05-05 14:29 50.16533 13.21230 33813 ft 435 kts 270°
2026-05-05 14:30 50.16831 13.11809 33832 ft 435 kts 270°
2026-05-05 14:30 50.17121 13.02370 33833 ft 436 kts 270°
2026-05-05 14:31 50.17403 12.92979 33833 ft 437 kts 270°
2026-05-05 14:31 50.17679 12.83512 33833 ft 437 kts 270°
2026-05-05 14:32 50.17947 12.74042 33830 ft 437 kts 270°
2026-05-05 14:32 50.18208 12.64567 33816 ft 437 kts 269°
2026-05-05 14:33 50.18461 12.55089 33809 ft 437 kts 269°
2026-05-05 14:33 50.18708 12.45627 33797 ft 437 kts 269°
2026-05-05 14:34 50.18994 12.36207 33784 ft 439 kts 273°
2026-05-05 14:34 50.20492 12.26923 33809 ft 445 kts 286°
2026-05-05 14:35 50.22656 12.17856 33809 ft 446 kts 286°
2026-05-05 14:35 50.24775 12.08758 33828 ft 446 kts 285°
2026-05-05 14:36 50.26852 11.99632 33828 ft 446 kts 285°
2026-05-05 14:36 50.28932 11.90580 33830 ft 445 kts 285°
2026-05-05 14:37 50.31026 11.81479 33838 ft 444 kts 285°
2026-05-05 14:37 50.33108 11.72376 33832 ft 444 kts 285°
2026-05-05 14:38 50.35179 11.63271 33822 ft 444 kts 285°
2026-05-05 14:38 50.37240 11.54169 33820 ft 443 kts 285°
2026-05-05 14:39 50.39279 11.45126 33801 ft 443 kts 285°
2026-05-05 14:39 50.41319 11.36045 33799 ft 442 kts 284°
2026-05-05 14:40 50.43352 11.26943 33810 ft 442 kts 284°
2026-05-05 14:40 50.45370 11.17841 33815 ft 441 kts 284°
2026-05-05 14:41 50.47379 11.08741 33810 ft 441 kts 284°
2026-05-05 14:41 50.49369 10.99691 33808 ft 441 kts 284°
2026-05-05 14:42 50.51366 10.90576 33814 ft 442 kts 284°
2026-05-05 14:42 50.53359 10.81440 33822 ft 442 kts 284°
2026-05-05 14:43 50.55412 10.72297 33825 ft 444 kts 284°
2026-05-05 14:43 50.57488 10.63125 33818 ft 446 kts 284°
2026-05-05 14:44 50.59865 10.54139 33822 ft 452 kts 292°
2026-05-05 14:44 50.62790 10.45353 33819 ft 454 kts 293°
2026-05-05 14:45 50.65733 10.36545 33823 ft 454 kts 292°
2026-05-05 14:45 50.68643 10.27693 33827 ft 455 kts 292°
2026-05-05 14:46 50.71041 10.20329 33825 ft 455 kts 292°
2026-05-05 14:46 50.74397 10.09976 33819 ft 455 kts 292°
2026-05-05 14:47 50.76800 10.02541 33826 ft 454 kts 292°
2026-05-05 14:47 50.80130 9.92199 33822 ft 454 kts 292°
2026-05-05 14:48 50.82526 9.84733 33820 ft 454 kts 292°
2026-05-05 14:48 50.85360 9.75876 33815 ft 454 kts 292°
2026-05-05 14:49 50.88129 9.66905 33810 ft 452 kts 289°
2026-05-05 14:49 50.90518 9.57719 33811 ft 451 kts 287°
2026-05-05 14:50 50.92907 9.48531 33810 ft 451 kts 288°
2026-05-05 14:50 50.94112 9.43955 33571 ft 451 kts 288°
2026-05-05 14:50 50.95313 9.39362 32989 ft 446 kts 288°
2026-05-05 14:51 50.96496 9.34821 32335 ft 444 kts 287°
2026-05-05 14:51 50.97679 9.30264 31521 ft 446 kts 288°
2026-05-05 14:51 50.98856 9.25716 30703 ft 448 kts 288°
2026-05-05 14:51 51.00031 9.21164 29705 ft 453 kts 288°
2026-05-05 14:52 51.01227 9.16532 28931 ft 451 kts 288°
2026-05-05 14:52 51.02424 9.11890 27781 ft 457 kts 288°
2026-05-05 14:52 51.03616 9.07261 26919 ft 454 kts 289°
2026-05-05 14:52 51.04815 9.02593 26004 ft 455 kts 289°
2026-05-05 14:53 51.06013 8.97916 25089 ft 457 kts 289°
2026-05-05 14:53 51.07209 8.93251 24264 ft 456 kts 289°
2026-05-05 14:53 51.08412 8.88580 23485 ft 454 kts 289°
2026-05-05 14:53 51.09603 8.83952 22666 ft 451 kts 290°
2026-05-05 14:54 51.10786 8.79346 21905 ft 446 kts 290°
2026-05-05 14:54 51.12102 8.74905 21100 ft 445 kts 296°
2026-05-05 14:54 51.13612 8.70688 20353 ft 441 kts 298°
2026-05-05 14:54 51.15164 8.66508 19631 ft 437 kts 298°
2026-05-05 14:55 51.16694 8.62333 18915 ft 433 kts 298°
2026-05-05 14:55 51.18175 8.58187 18189 ft 430 kts 298°
2026-05-05 14:55 51.19646 8.54045 17395 ft 427 kts 299°
2026-05-05 14:55 51.21333 8.50189 16597 ft 425 kts 308°
2026-05-05 14:56 51.23287 8.46664 15860 ft 421 kts 310°
2026-05-05 14:56 51.25219 8.43197 15151 ft 417 kts 310°
2026-05-05 14:56 51.27117 8.39719 14446 ft 412 kts 309°
2026-05-05 14:56 51.28969 8.36265 13773 ft 408 kts 309°
2026-05-05 14:57 51.30792 8.32829 13030 ft 404 kts 309°
2026-05-05 14:57 51.32605 8.29408 12320 ft 400 kts 309°
2026-05-05 14:57 51.34395 8.26032 11627 ft 397 kts 308°
2026-05-05 14:57 51.36010 8.22546 10982 ft 391 kts 300°
2026-05-05 14:58 51.37320 8.18867 10864 ft 372 kts 298°
2026-05-05 14:58 51.38581 8.15329 10703 ft 358 kts 298°
2026-05-05 14:58 51.39807 8.11958 10548 ft 344 kts 298°
2026-05-05 14:58 51.41002 8.08704 10400 ft 332 kts 298°
2026-05-05 14:59 51.42154 8.05577 10269 ft 321 kts 298°
2026-05-05 14:59 51.43276 8.02540 10149 ft 311 kts 298°
2026-05-05 14:59 51.44360 7.99610 10008 ft 302 kts 298°
2026-05-05 14:59 51.45414 7.96754 9891 ft 293 kts 298°
2026-05-05 15:00 51.46431 7.93993 9766 ft 284 kts 298°
2026-05-05 15:00 51.47096 7.92183 9458 ft 287 kts 298°
2026-05-05 15:00 51.48401 7.88478 9040 ft 283 kts 290°
2026-05-05 15:00 51.49001 7.85507 8743 ft 279 kts 282°
2026-05-05 15:01 51.49461 7.82486 8451 ft 277 kts 281°
2026-05-05 15:01 51.49905 7.79487 8156 ft 276 kts 281°
2026-05-05 15:01 51.50364 7.76501 7849 ft 275 kts 282°
2026-05-05 15:01 51.50726 7.73542 7549 ft 272 kts 268°
2026-05-05 15:02 51.50336 7.70646 7293 ft 265 kts 245°
2026-05-05 15:02 51.49526 7.68020 7082 ft 260 kts 241°
2026-05-05 15:02 51.48690 7.65506 6976 ft 252 kts 240°
2026-05-05 15:02 51.47873 7.63072 6844 ft 246 kts 240°
2026-05-05 15:03 51.47045 7.60620 6400 ft 255 kts 240°
2026-05-05 15:03 51.46190 7.58108 6053 ft 257 kts 240°
2026-05-05 15:03 51.45330 7.55600 5774 ft 256 kts 240°
2026-05-05 15:03 51.44473 7.53112 5484 ft 256 kts 240°
2026-05-05 15:04 51.43616 7.50634 5181 ft 257 kts 240°
2026-05-05 15:04 51.42734 7.48100 4901 ft 256 kts 240°
2026-05-05 15:04 51.41876 7.45636 4808 ft 250 kts 240°
2026-05-05 15:04 51.41056 7.43261 4762 ft 243 kts 243°
2026-05-05 15:05 51.41146 7.38317 4576 ft 226 kts 309°
2026-05-05 15:05 51.42426 7.37013 4390 ft 221 kts 347°
2026-05-05 15:05 51.43997 7.37254 3642 ft 239 kts 29°
2026-05-05 15:06 51.45123 7.39122 3332 ft 232 kts 67°
2026-05-05 15:06 51.45427 7.41587 3046 ft 221 kts 83°
2026-05-05 15:06 51.45857 7.43929 2767 ft 221 kts 64°
2026-05-05 15:06 51.46539 7.46107 2471 ft 221 kts 62°
2026-05-05 15:07 51.47270 7.48250 2190 ft 215 kts 60°
2026-05-05 15:07 51.47981 7.50277 1908 ft 202 kts 60°
2026-05-05 15:07 51.48652 7.52184 1654 ft 190 kts 59°
2026-05-05 15:07 51.49275 7.53959 1390 ft 176 kts 59°
2026-05-05 15:08 51.49840 7.55568 1185 ft 155 kts 58°
2026-05-05 15:08 51.50338 7.56988 1013 ft 139 kts 57°
2026-05-05 15:08 51.50811 7.58332 798 ft 136 kts 57°
2026-05-05 15:08 51.51270 7.59641 632 ft 130 kts 57°
2026-05-05 15:09 51.51688 7.60841 435 ft 113 kts 56°
2026-05-05 15:09 51.51999 7.61696 412 ft 49 kts 63°
2026-05-05 15:09 51.52116 7.62036 412 ft 27 kts 60°
2026-05-05 15:09 51.52180 7.62260 413 ft 14 kts 84°
2026-05-05 15:10 51.52125 7.62364 412 ft 12 kts 149°
2026-05-05 15:10 51.52050 7.62361 409 ft 12 kts 223°
2026-05-05 15:10 51.52019 7.62295 410 ft 6 kts 236°
2026-05-05 15:10 51.51997 7.62244 414 ft 6 kts 236°
2026-05-05 15:11 51.51976 7.62192 409 ft 5 kts 238°
2026-05-05 15:11 51.51957 7.62140 414 ft 5 kts 243°
2026-05-05 15:11 51.51942 7.62086 411 ft 5 kts 244°
2026-05-05 15:11 51.51931 7.62050 413 ft 0 kts 244°
2026-05-05 15:12 51.51924 7.62030 416 ft 5 kts 243°
2026-05-05 15:13 51.51658 7.61534 418 ft 0 kts 154°